CSN3054 ZSPD-ZBTJ

Flight info

Callsign CSN3054
Flight time 1h 55m
Altitude 34100
Route K0946S1040 PIK84D PIKAS G330 PIMOL A593 DALIM W157 AVBOX AVBOX2R
Aircraft A359/H-SDE2E3GHIJ3J4J5LM1ORWXY/LB1D1

Departure

Time 2026-04-12 04:19
Airport Shanghai Pudong International Airport (ZSPD)

Arrival

Time 2026-04-12 06:15
Airport Tianjin Binhai International Airport (ZBTJ)
Time Latitude Longitude Altitude Speed Heading
2026-04-12 03:45 31.13405 121.81269 29 ft 0 kts 72°
2026-04-12 03:58 31.13405 121.81268 29 ft 1 kts 72°
2026-04-12 03:59 31.13397 121.81241 29 ft 4 kts 72°
2026-04-12 03:59 31.13390 121.81214 27 ft 4 kts 76°
2026-04-12 03:59 31.13387 121.81192 28 ft 4 kts 115°
2026-04-12 03:59 31.13400 121.81173 25 ft 4 kts 151°
2026-04-12 04:00 31.13416 121.81164 26 ft 4 kts 160°
2026-04-12 04:00 31.13427 121.81159 29 ft 4 kts 161°
2026-04-12 04:04 31.13407 121.81167 29 ft 7 kts 162°
2026-04-12 04:04 31.13352 121.81188 29 ft 10 kts 162°
2026-04-12 04:04 31.13280 121.81215 29 ft 12 kts 162°
2026-04-12 04:04 31.13192 121.81248 28 ft 14 kts 162°
2026-04-12 04:05 31.13099 121.81284 29 ft 15 kts 162°
2026-04-12 04:05 31.13024 121.81293 29 ft 10 kts 206°
2026-04-12 04:05 31.12985 121.81214 29 ft 13 kts 252°
2026-04-12 04:05 31.12954 121.81103 29 ft 16 kts 252°
2026-04-12 04:06 31.12917 121.80967 29 ft 19 kts 252°
2026-04-12 04:06 31.12873 121.80808 29 ft 21 kts 252°
2026-04-12 04:06 31.12826 121.80638 29 ft 20 kts 252°
2026-04-12 04:06 31.12784 121.80490 29 ft 18 kts 252°
2026-04-12 04:07 31.12750 121.80365 29 ft 15 kts 252°
2026-04-12 04:07 31.12734 121.80309 29 ft 0 kts 252°
2026-04-12 04:08 31.12730 121.80296 29 ft 7 kts 252°
2026-04-12 04:08 31.12734 121.80221 29 ft 11 kts 305°
2026-04-12 04:09 31.12809 121.80178 29 ft 14 kts 342°
2026-04-12 04:09 31.12912 121.80140 29 ft 17 kts 342°
2026-04-12 04:09 31.13037 121.80093 29 ft 20 kts 342°
2026-04-12 04:09 31.13168 121.80044 29 ft 20 kts 342°
2026-04-12 04:10 31.13295 121.79995 29 ft 18 kts 342°
2026-04-12 04:10 31.13423 121.79945 29 ft 18 kts 332°
2026-04-12 04:10 31.13452 121.79862 29 ft 10 kts 288°
2026-04-12 04:10 31.13511 121.79803 29 ft 13 kts 337°
2026-04-12 04:11 31.13606 121.79768 29 ft 16 kts 342°
2026-04-12 04:11 31.13721 121.79725 29 ft 19 kts 342°
2026-04-12 04:11 31.13850 121.79676 29 ft 18 kts 342°
2026-04-12 04:11 31.13979 121.79628 29 ft 20 kts 342°
2026-04-12 04:12 31.14110 121.79579 29 ft 21 kts 342°
2026-04-12 04:12 31.14228 121.79534 29 ft 16 kts 342°
2026-04-12 04:12 31.14345 121.79490 29 ft 19 kts 342°
2026-04-12 04:12 31.14482 121.79438 29 ft 22 kts 342°
2026-04-12 04:13 31.14632 121.79382 30 ft 18 kts 342°
2026-04-12 04:13 31.14753 121.79336 28 ft 20 kts 342°
2026-04-12 04:13 31.14893 121.79283 30 ft 22 kts 342°
2026-04-12 04:13 31.15037 121.79229 29 ft 20 kts 342°
2026-04-12 04:14 31.15162 121.79182 29 ft 20 kts 342°
2026-04-12 04:14 31.15298 121.79130 29 ft 18 kts 342°
2026-04-12 04:14 31.15421 121.79084 29 ft 18 kts 342°
2026-04-12 04:14 31.15539 121.79039 29 ft 14 kts 342°
2026-04-12 04:15 31.15638 121.79002 29 ft 17 kts 342°
2026-04-12 04:15 31.15762 121.78955 27 ft 20 kts 342°
2026-04-12 04:15 31.15900 121.78903 29 ft 18 kts 342°
2026-04-12 04:15 31.15959 121.78827 29 ft 12 kts 266°
2026-04-12 04:16 31.15954 121.78801 29 ft 0 kts 253°
2026-04-12 04:18 31.15951 121.78789 29 ft 4 kts 252°
2026-04-12 04:18 31.15932 121.78733 28 ft 11 kts 237°
2026-04-12 04:18 31.15856 121.78701 29 ft 14 kts 171°
2026-04-12 04:18 31.15781 121.78729 29 ft 3 kts 161°
2026-04-12 04:19 31.15641 121.78782 28 ft 54 kts 162°
2026-04-12 04:19 31.15032 121.79012 30 ft 126 kts 162°
2026-04-12 04:19 31.14006 121.79405 176 ft 172 kts 159°
2026-04-12 04:19 31.12909 121.79816 1158 ft 159 kts 159°
2026-04-12 04:20 31.11889 121.80188 2166 ft 150 kts 160°
2026-04-12 04:20 31.10902 121.80525 2761 ft 149 kts 163°
2026-04-12 04:20 31.09864 121.80869 2979 ft 159 kts 163°
2026-04-12 04:20 31.08798 121.81222 2996 ft 160 kts 163°
2026-04-12 04:21 31.07743 121.81572 3131 ft 153 kts 163°
2026-04-12 04:21 31.06765 121.81901 3435 ft 139 kts 165°
2026-04-12 04:21 31.05871 121.82202 3723 ft 131 kts 165°
2026-04-12 04:21 31.04988 121.82498 3933 ft 132 kts 164°
2026-04-12 04:22 31.04093 121.82800 4248 ft 142 kts 165°
2026-04-12 04:22 31.03057 121.83146 4601 ft 168 kts 164°
2026-04-12 04:22 31.01837 121.83526 4904 ft 197 kts 169°
2026-04-12 04:22 31.00381 121.83465 5215 ft 225 kts 197°
2026-04-12 04:23 30.99060 121.82356 5626 ft 250 kts 233°
2026-04-12 04:23 30.98353 121.80459 6406 ft 261 kts 251°
2026-04-12 04:23 30.97834 121.78401 7365 ft 268 kts 252°
2026-04-12 04:23 30.97298 121.76308 8197 ft 270 kts 251°
2026-04-12 04:24 30.96743 121.74210 8699 ft 273 kts 251°
2026-04-12 04:24 30.96317 121.72046 8873 ft 276 kts 263°
2026-04-12 04:24 30.96460 121.69815 8901 ft 278 kts 278°
2026-04-12 04:24 30.96877 121.67602 8891 ft 280 kts 281°
2026-04-12 04:25 30.97310 121.65400 8880 ft 279 kts 280°
2026-04-12 04:25 30.97735 121.63192 8930 ft 279 kts 280°
2026-04-12 04:25 30.98149 121.60995 9362 ft 282 kts 279°
2026-04-12 04:25 30.98567 121.58754 10230 ft 286 kts 279°
2026-04-12 04:26 30.98997 121.56422 10751 ft 305 kts 279°
2026-04-12 04:26 30.99456 121.53920 11152 ft 326 kts 280°
2026-04-12 04:26 30.99945 121.51265 11685 ft 340 kts 280°
2026-04-12 04:26 31.00446 121.48543 12440 ft 346 kts 280°
2026-04-12 04:27 31.00957 121.45785 13244 ft 350 kts 280°
2026-04-12 04:27 31.01474 121.42993 14016 ft 354 kts 280°
2026-04-12 04:27 31.01992 121.40175 14748 ft 356 kts 279°
2026-04-12 04:27 31.02512 121.37349 15509 ft 357 kts 279°
2026-04-12 04:28 31.03032 121.34512 16287 ft 359 kts 279°
2026-04-12 04:28 31.03517 121.31861 16961 ft 362 kts 279°
2026-04-12 04:28 31.04043 121.28986 17683 ft 364 kts 278°
2026-04-12 04:28 31.04571 121.26093 18400 ft 366 kts 278°
2026-04-12 04:29 31.05104 121.23173 19022 ft 370 kts 278°
2026-04-12 04:29 31.05643 121.20212 19612 ft 375 kts 278°
2026-04-12 04:29 31.06324 121.17250 20201 ft 384 kts 286°
2026-04-12 04:29 31.07704 121.14532 20793 ft 399 kts 304°
2026-04-12 04:30 31.09864 121.12397 21355 ft 418 kts 322°
2026-04-12 04:30 31.12611 121.11088 21886 ft 439 kts 340°
2026-04-12 04:30 31.15710 121.10768 22373 ft 458 kts 357°
2026-04-12 04:30 31.18904 121.11365 22867 ft 469 kts
2026-04-12 04:31 31.22121 121.11511 23336 ft 460 kts 348°
2026-04-12 04:31 31.25301 121.11319 23773 ft 466 kts 351°
2026-04-12 04:31 31.28554 121.11224 24257 ft 469 kts 351°
2026-04-12 04:31 31.31819 121.11109 24783 ft 470 kts 350°
2026-04-12 04:32 31.35103 121.11016 25303 ft 476 kts 353°
2026-04-12 04:32 31.38439 121.11174 25826 ft 482 kts 355°
2026-04-12 04:32 31.41803 121.11399 26335 ft 485 kts 354°
2026-04-12 04:32 31.45124 121.11160 26837 ft 471 kts 340°
2026-04-12 04:33 31.48190 121.10019 27385 ft 458 kts 327°
2026-04-12 04:33 31.51096 121.08509 27926 ft 457 kts 325°
2026-04-12 04:33 31.53992 121.06945 28473 ft 460 kts 325°
2026-04-12 04:33 31.56908 121.05374 29019 ft 462 kts 325°
2026-04-12 04:34 31.59842 121.03801 29532 ft 465 kts 325°
2026-04-12 04:34 31.62797 121.02221 30030 ft 468 kts 325°
2026-04-12 04:34 31.65762 121.00638 30448 ft 470 kts 325°
2026-04-12 04:34 31.68741 120.99048 30874 ft 472 kts 325°
2026-04-12 04:35 31.71737 120.97450 31305 ft 473 kts 325°
2026-04-12 04:35 31.74740 120.95847 31703 ft 475 kts 325°
2026-04-12 04:35 31.77761 120.94233 32115 ft 477 kts 325°
2026-04-12 04:35 31.80747 120.92638 32490 ft 478 kts 325°
2026-04-12 04:36 31.83786 120.91012 32861 ft 480 kts 326°
2026-04-12 04:36 31.86826 120.89385 33240 ft 480 kts 326°
2026-04-12 04:36 31.89866 120.87760 33753 ft 478 kts 326°
2026-04-12 04:36 31.92887 120.86143 33985 ft 477 kts 325°
2026-04-12 04:37 31.95896 120.84533 34019 ft 474 kts 326°
2026-04-12 04:37 32.01889 120.81314 34023 ft 473 kts 325°
2026-04-12 04:38 32.07801 120.77961 34024 ft 466 kts 320°
2026-04-12 04:38 32.10441 120.75821 34027 ft 455 kts 311°
2026-04-12 04:38 32.12706 120.73293 34029 ft 444 kts 303°
2026-04-12 04:39 32.16043 120.67351 34029 ft 427 kts 288°
2026-04-12 04:39 32.17715 120.60751 34031 ft 417 kts 274°
2026-04-12 04:40 32.18373 120.54000 34022 ft 416 kts 272°
2026-04-12 04:40 32.18897 120.47191 34027 ft 417 kts 271°
2026-04-12 04:41 32.19427 120.40368 34020 ft 417 kts 272°
2026-04-12 04:41 32.19975 120.33546 34026 ft 418 kts 272°
2026-04-12 04:42 32.20534 120.26707 34031 ft 419 kts 272°
2026-04-12 04:42 32.21098 120.19851 34029 ft 419 kts 272°
2026-04-12 04:43 32.21935 120.09554 34025 ft 421 kts 272°
2026-04-12 04:43 32.22488 120.02676 34030 ft 421 kts 272°
2026-04-12 04:44 32.23040 119.95784 34031 ft 422 kts 272°
2026-04-12 04:44 32.23588 119.88882 34030 ft 423 kts 272°
2026-04-12 04:45 32.24653 119.82052 34029 ft 430 kts 282°
2026-04-12 04:45 32.27275 119.75599 34030 ft 445 kts 297°
2026-04-12 04:46 32.31595 119.70158 34033 ft 466 kts 314°
2026-04-12 04:46 32.35938 119.66317 34030 ft 471 kts 316°
2026-04-12 04:47 32.41298 119.61825 34040 ft 473 kts 316°
2026-04-12 04:47 32.46662 119.57313 34053 ft 474 kts 315°
2026-04-12 04:48 32.52010 119.52740 34040 ft 474 kts 315°
2026-04-12 04:48 32.57345 119.48117 34043 ft 476 kts 315°
2026-04-12 04:49 32.62695 119.43474 34048 ft 477 kts 315°
2026-04-12 04:49 32.68064 119.38817 34049 ft 478 kts 314°
2026-04-12 04:50 32.73442 119.34149 34048 ft 479 kts 314°
2026-04-12 04:50 32.78827 119.29468 34053 ft 479 kts 314°
2026-04-12 04:51 32.84214 119.24778 34053 ft 480 kts 314°
2026-04-12 04:51 32.89601 119.20080 34055 ft 480 kts 314°
2026-04-12 04:52 32.94979 119.15383 34057 ft 479 kts 314°
2026-04-12 04:52 33.00376 119.10723 34065 ft 479 kts 315°
2026-04-12 04:53 33.05740 119.06113 34061 ft 478 kts 315°
2026-04-12 04:54 33.13797 118.99165 34068 ft 476 kts 315°
2026-04-12 04:54 33.18955 118.94703 34073 ft 474 kts 315°
2026-04-12 04:55 33.24298 118.90073 34066 ft 474 kts 315°
2026-04-12 04:55 33.29605 118.85423 34073 ft 473 kts 315°
2026-04-12 04:56 33.34932 118.80784 34076 ft 473 kts 316°
2026-04-12 04:56 33.40268 118.76160 34081 ft 474 kts 316°
2026-04-12 04:57 33.45611 118.71526 34080 ft 474 kts 316°
2026-04-12 04:57 33.50961 118.66882 34082 ft 475 kts 316°
2026-04-12 04:58 33.56328 118.62229 34086 ft 476 kts 316°
2026-04-12 04:58 33.61713 118.57557 34087 ft 478 kts 316°
2026-04-12 04:59 33.67077 118.52892 34078 ft 479 kts 316°
2026-04-12 04:59 33.72484 118.48181 34077 ft 481 kts 316°
2026-04-12 05:00 33.77904 118.43450 34085 ft 482 kts 316°
2026-04-12 05:00 33.83322 118.38719 34083 ft 482 kts 315°
2026-04-12 05:01 33.88759 118.33952 34081 ft 484 kts 315°
2026-04-12 05:01 33.94204 118.29178 34084 ft 484 kts 315°
2026-04-12 05:02 33.99658 118.24403 34082 ft 484 kts 315°
2026-04-12 05:02 34.05125 118.19646 34079 ft 484 kts 315°
2026-04-12 05:03 34.10585 118.14896 34079 ft 484 kts 315°
2026-04-12 05:03 34.16041 118.10148 34077 ft 483 kts 315°
2026-04-12 05:04 34.21454 118.05423 34077 ft 483 kts 315°
2026-04-12 05:04 34.27039 118.00854 34073 ft 492 kts 322°
2026-04-12 05:04 34.30195 117.99122 34073 ft 503 kts 331°
2026-04-12 05:05 34.33526 117.97751 34076 ft 507 kts 333°
2026-04-12 05:05 34.40305 117.95286 34074 ft 509 kts 335°
2026-04-12 05:06 34.47121 117.92916 34070 ft 509 kts 335°
2026-04-12 05:06 34.53929 117.90518 34067 ft 509 kts 334°
2026-04-12 05:07 34.60715 117.88093 34070 ft 508 kts 334°
2026-04-12 05:07 34.67456 117.85669 34063 ft 508 kts 334°
2026-04-12 05:08 34.74228 117.83230 34069 ft 507 kts 334°
2026-04-12 05:08 34.80995 117.80790 34064 ft 506 kts 334°
2026-04-12 05:09 34.87749 117.78345 34068 ft 506 kts 334°
2026-04-12 05:09 34.94487 117.75872 34064 ft 505 kts 334°
2026-04-12 05:10 35.01226 117.73396 34068 ft 505 kts 334°
2026-04-12 05:10 35.07920 117.70941 34066 ft 505 kts 334°
2026-04-12 05:11 35.14666 117.68473 34067 ft 506 kts 334°
2026-04-12 05:11 35.21399 117.65998 34063 ft 505 kts 334°
2026-04-12 05:12 35.28143 117.63515 34066 ft 506 kts 334°
2026-04-12 05:12 35.34875 117.61030 34065 ft 505 kts 334°
2026-04-12 05:13 35.41574 117.58555 34063 ft 506 kts 334°
2026-04-12 05:13 35.48312 117.56063 34056 ft 506 kts 334°
2026-04-12 05:14 35.55052 117.53565 34056 ft 506 kts 334°
2026-04-12 05:14 35.61793 117.51064 34056 ft 506 kts 334°
2026-04-12 05:15 35.68532 117.48560 34058 ft 506 kts 334°
2026-04-12 05:15 35.75269 117.46052 34058 ft 505 kts 334°
2026-04-12 05:16 35.81998 117.43542 34051 ft 505 kts 334°
2026-04-12 05:16 35.88716 117.41031 34053 ft 504 kts 334°
2026-04-12 05:17 35.95433 117.38516 34053 ft 504 kts 334°
2026-04-12 05:17 36.02138 117.36007 34051 ft 503 kts 334°
2026-04-12 05:18 36.08843 117.33528 34051 ft 502 kts 334°
2026-04-12 05:18 36.15531 117.31058 34054 ft 501 kts 335°
2026-04-12 05:19 36.22206 117.28589 34048 ft 500 kts 335°
2026-04-12 05:19 36.28816 117.26135 34049 ft 499 kts 335°
2026-04-12 05:20 36.35458 117.23665 34053 ft 497 kts 335°
2026-04-12 05:20 36.42031 117.21089 34056 ft 491 kts 331°
2026-04-12 05:21 36.48348 117.17936 34052 ft 489 kts 330°
2026-04-12 05:21 36.54614 117.14673 34046 ft 488 kts 330°
2026-04-12 05:22 36.60864 117.11397 34041 ft 488 kts 330°
2026-04-12 05:22 36.67124 117.08121 34029 ft 487 kts 330°
2026-04-12 05:23 36.73370 117.04853 34028 ft 487 kts 331°
2026-04-12 05:23 36.79614 117.01584 34029 ft 486 kts 331°
2026-04-12 05:24 36.85849 116.98315 34027 ft 485 kts 331°
2026-04-12 05:24 36.92068 116.95051 34020 ft 485 kts 331°
2026-04-12 05:25 36.98280 116.91783 34023 ft 484 kts 332°
2026-04-12 05:25 37.04446 116.88534 34021 ft 483 kts 332°
2026-04-12 05:26 37.10640 116.85263 34020 ft 483 kts 332°
2026-04-12 05:26 37.16818 116.81993 34018 ft 482 kts 332°
2026-04-12 05:27 37.23080 116.78942 34022 ft 485 kts 337°
2026-04-12 05:27 37.29525 116.76421 34020 ft 485 kts 338°
2026-04-12 05:28 37.35989 116.73989 34020 ft 485 kts 338°
2026-04-12 05:28 37.42450 116.71562 34018 ft 483 kts 338°
2026-04-12 05:29 37.48887 116.69129 34016 ft 482 kts 338°
2026-04-12 05:29 37.55313 116.66688 34015 ft 482 kts 338°
2026-04-12 05:30 37.61683 116.64263 34018 ft 481 kts 338°
2026-04-12 05:30 37.68085 116.61822 34017 ft 480 kts 338°
2026-04-12 05:31 37.74478 116.59381 34015 ft 479 kts 338°
2026-04-12 05:31 37.80854 116.56936 34016 ft 478 kts 339°
2026-04-12 05:32 37.87210 116.54500 34019 ft 477 kts 339°
2026-04-12 05:32 37.93560 116.52065 34016 ft 476 kts 339°
2026-04-12 05:33 37.99491 116.48570 34015 ft 467 kts 323°
2026-04-12 05:33 38.04796 116.43945 34011 ft 465 kts 321°
2026-04-12 05:34 38.10026 116.39115 34013 ft 465 kts 320°
2026-04-12 05:34 38.14399 116.35055 34008 ft 464 kts 320°
2026-04-12 05:35 38.20474 116.29443 34014 ft 464 kts 320°
2026-04-12 05:35 38.25293 116.26351 34011 ft 475 kts 340°
2026-04-12 05:35 38.28590 116.25773 34014 ft 485 kts 355°
2026-04-12 05:36 38.31971 116.26234 34013 ft 492 kts
2026-04-12 05:36 38.38642 116.28384 34013 ft 497 kts 12°
2026-04-12 05:37 38.45278 116.30913 34016 ft 497 kts 12°
2026-04-12 05:37 38.51924 116.33342 34012 ft 496 kts 11°
2026-04-12 05:38 38.58588 116.35672 34014 ft 496 kts 10°
2026-04-12 05:38 38.65259 116.37974 34013 ft 496 kts 10°
2026-04-12 05:39 38.71921 116.40276 34017 ft 496 kts 10°
2026-04-12 05:39 38.78589 116.42592 34011 ft 496 kts 10°
2026-04-12 05:40 38.85183 116.44665 33655 ft 472 kts
2026-04-12 05:40 38.88379 116.44544 33378 ft 449 kts 344°
2026-04-12 05:40 38.91267 116.43338 33118 ft 427 kts 328°
2026-04-12 05:40 38.93636 116.41200 32788 ft 409 kts 311°
2026-04-12 05:41 38.95357 116.38396 31934 ft 406 kts 296°
2026-04-12 05:41 38.96347 116.34997 30906 ft 411 kts 279°
2026-04-12 05:41 38.96470 116.31320 29874 ft 419 kts 263°
2026-04-12 05:41 38.95696 116.27664 28643 ft 430 kts 247°
2026-04-12 05:42 38.94079 116.24384 27447 ft 443 kts 231°
2026-04-12 05:42 38.91734 116.21755 26417 ft 453 kts 217°
2026-04-12 05:42 38.89055 116.19616 26003 ft 455 kts 212°
2026-04-12 05:43 38.83047 116.16839 25979 ft 468 kts 191°
2026-04-12 05:43 38.79779 116.16824 25981 ft 475 kts 176°
2026-04-12 05:43 38.76566 116.17940 25979 ft 484 kts 160°
2026-04-12 05:43 38.73573 116.19946 25918 ft 487 kts 154°
2026-04-12 05:44 38.70883 116.22616 25684 ft 494 kts 137°
2026-04-12 05:44 38.68806 116.26129 25431 ft 498 kts 121°
2026-04-12 05:44 38.67404 116.30177 25205 ft 499 kts 110°
2026-04-12 05:44 38.66485 116.34454 24968 ft 499 kts 102°
2026-04-12 05:45 38.66061 116.38852 24729 ft 498 kts 93°
2026-04-12 05:45 38.66225 116.43258 24492 ft 496 kts 81°
2026-04-12 05:45 38.67029 116.47533 24272 ft 493 kts 73°
2026-04-12 05:45 38.68021 116.51729 24036 ft 492 kts 72°
2026-04-12 05:46 38.69023 116.55901 23809 ft 490 kts 72°
2026-04-12 05:46 38.70015 116.60063 23586 ft 488 kts 72°
2026-04-12 05:46 38.70994 116.64213 23348 ft 486 kts 73°
2026-04-12 05:46 38.71955 116.68353 23071 ft 484 kts 73°
2026-04-12 05:47 38.72907 116.72479 22792 ft 482 kts 73°
2026-04-12 05:47 38.73852 116.76586 22532 ft 480 kts 73°
2026-04-12 05:47 38.74792 116.80679 22262 ft 478 kts 73°
2026-04-12 05:47 38.75725 116.84747 21915 ft 473 kts 73°
2026-04-12 05:48 38.76644 116.88762 21321 ft 466 kts 73°
2026-04-12 05:48 38.77547 116.92714 20672 ft 460 kts 73°
2026-04-12 05:48 38.78428 116.96638 20011 ft 455 kts 74°
2026-04-12 05:48 38.78889 117.00568 19378 ft 451 kts 89°
2026-04-12 05:49 38.78490 117.04521 18722 ft 447 kts 107°
2026-04-12 05:49 38.77413 117.08232 18045 ft 442 kts 114°
2026-04-12 05:49 38.76202 117.11831 17331 ft 437 kts 114°
2026-04-12 05:49 38.75011 117.15379 16667 ft 431 kts 114°
2026-04-12 05:50 38.74044 117.18988 15999 ft 426 kts 103°
2026-04-12 05:50 38.73877 117.22739 15349 ft 422 kts 84°
2026-04-12 05:50 38.74620 117.26334 14694 ft 416 kts 66°
2026-04-12 05:50 38.75850 117.29657 14046 ft 411 kts 63°
2026-04-12 05:51 38.77133 117.32908 13341 ft 406 kts 63°
2026-04-12 05:51 38.78388 117.36115 12697 ft 400 kts 63°
2026-04-12 05:51 38.79952 117.39017 12056 ft 393 kts 45°
2026-04-12 05:51 38.82143 117.41019 11446 ft 384 kts 24°
2026-04-12 05:52 38.84682 117.41839 11054 ft 371 kts
2026-04-12 05:52 38.87107 117.41374 10911 ft 334 kts 338°
2026-04-12 05:52 38.88912 117.39834 10775 ft 297 kts 310°
2026-04-12 05:52 38.89796 117.37572 10645 ft 284 kts 280°
2026-04-12 05:53 38.89760 117.35033 10610 ft 287 kts 265°
2026-04-12 05:53 38.90086 117.32527 10607 ft 288 kts 295°
2026-04-12 05:53 38.91333 117.30618 10589 ft 276 kts 325°
2026-04-12 05:53 38.93110 117.29855 10534 ft 271 kts 355°
2026-04-12 05:54 38.95019 117.29857 10475 ft 282 kts 356°
2026-04-12 05:54 38.96944 117.29324 10270 ft 284 kts 338°
2026-04-12 05:54 38.98751 117.28286 9852 ft 285 kts 333°
2026-04-12 05:54 39.00525 117.27155 9453 ft 284 kts 332°
2026-04-12 05:55 39.02268 117.26035 9037 ft 284 kts 332°
2026-04-12 05:55 39.04032 117.24896 8626 ft 283 kts 332°
2026-04-12 05:55 39.05791 117.23764 8249 ft 282 kts 332°
2026-04-12 05:55 39.07541 117.22636 7865 ft 280 kts 332°
2026-04-12 05:56 39.09272 117.21520 7519 ft 279 kts 333°
2026-04-12 05:56 39.11010 117.20399 7207 ft 277 kts 333°
2026-04-12 05:56 39.12725 117.19289 7014 ft 272 kts 332°
2026-04-12 05:56 39.14383 117.18210 6908 ft 262 kts 333°
2026-04-12 05:57 39.15986 117.17164 6765 ft 254 kts 332°
2026-04-12 05:57 39.17521 117.16167 6470 ft 239 kts 334°
2026-04-12 05:57 39.19080 117.15704 6186 ft 227 kts
2026-04-12 05:57 39.20548 117.16302 5820 ft 221 kts 32°
2026-04-12 05:58 39.21732 117.17517 5483 ft 214 kts 42°
2026-04-12 05:58 39.22719 117.18844 5252 ft 200 kts 55°
2026-04-12 05:58 39.23312 117.20399 4950 ft 194 kts 66°
2026-04-12 05:58 39.23790 117.22009 4632 ft 189 kts 68°
2026-04-12 05:59 39.24199 117.23621 4267 ft 189 kts 71°
2026-04-12 05:59 39.24556 117.25242 3919 ft 186 kts 72°
2026-04-12 05:59 39.24381 117.26891 3508 ft 194 kts 118°
2026-04-12 05:59 39.23414 117.28092 3251 ft 199 kts 152°
2026-04-12 06:00 39.22121 117.28661 3101 ft 195 kts 161°
2026-04-12 06:00 39.20874 117.29273 2989 ft 186 kts 149°
2026-04-12 06:00 39.19800 117.30155 2848 ft 180 kts 143°
2026-04-12 06:00 39.18771 117.31024 2772 ft 173 kts 146°
2026-04-12 06:01 39.17779 117.31832 2809 ft 163 kts 146°
2026-04-12 06:01 39.16702 117.32341 3105 ft 175 kts 178°
2026-04-12 06:01 39.15532 117.31823 3674 ft 189 kts 220°
2026-04-12 06:01 39.14678 117.30509 4443 ft 195 kts 239°
2026-04-12 06:02 39.13981 117.29001 5346 ft 196 kts 242°
2026-04-12 06:02 39.13311 117.27467 6212 ft 197 kts 242°
2026-04-12 06:02 39.12645 117.25909 6700 ft 206 kts 242°
2026-04-12 06:02 39.11891 117.24128 6892 ft 248 kts 242°
2026-04-12 06:03 39.11029 117.22070 6907 ft 270 kts 242°
2026-04-12 06:03 39.10226 117.19859 6891 ft 275 kts 255°
2026-04-12 06:03 39.10119 117.17424 6892 ft 274 kts 280°
2026-04-12 06:03 39.10785 117.15176 6896 ft 274 kts 299°
2026-04-12 06:04 39.11767 117.13075 6893 ft 274 kts 302°
2026-04-12 06:04 39.12792 117.11001 6890 ft 275 kts 302°
2026-04-12 06:04 39.13880 117.08973 6880 ft 276 kts 311°
2026-04-12 06:04 39.15373 117.07440 6740 ft 276 kts 329°
2026-04-12 06:05 39.17048 117.06252 6400 ft 274 kts 332°
2026-04-12 06:05 39.18735 117.05118 6088 ft 273 kts 333°
2026-04-12 06:05 39.20516 117.04322 5714 ft 275 kts 353°
2026-04-12 06:05 39.22399 117.04248 5532 ft 266 kts
2026-04-12 06:06 39.24220 117.04324 5452 ft 256 kts
2026-04-12 06:06 39.25965 117.04409 5352 ft 246 kts
2026-04-12 06:06 39.27641 117.04493 5314 ft 237 kts
2026-04-12 06:06 39.29257 117.04566 5301 ft 228 kts
2026-04-12 06:07 39.30816 117.04711 5110 ft 224 kts 12°
2026-04-12 06:07 39.32179 117.05628 4944 ft 222 kts 42°
2026-04-12 06:07 39.33197 117.07114 4808 ft 221 kts 51°
2026-04-12 06:07 39.34122 117.08695 4624 ft 219 kts 52°
2026-04-12 06:08 39.35026 117.10273 4376 ft 218 kts 52°
2026-04-12 06:08 39.35904 117.11864 4119 ft 218 kts 57°
2026-04-12 06:08 39.36291 117.13737 3923 ft 219 kts 90°
2026-04-12 06:08 39.36058 117.15663 3897 ft 221 kts 101°
2026-04-12 06:09 39.35542 117.17542 3901 ft 224 kts 116°
2026-04-12 06:09 39.34729 117.19211 3893 ft 214 kts 122°
2026-04-12 06:09 39.33792 117.20621 3914 ft 201 kts 135°
2026-04-12 06:09 39.32765 117.21795 3889 ft 196 kts 138°
2026-04-12 06:10 39.31608 117.22751 3845 ft 198 kts 150°
2026-04-12 06:10 39.30351 117.23554 3635 ft 200 kts 151°
2026-04-12 06:10 39.29104 117.24341 3340 ft 202 kts 153°
2026-04-12 06:10 39.27833 117.25129 3052 ft 204 kts 151°
2026-04-12 06:11 39.26544 117.25928 2769 ft 209 kts 152°
2026-04-12 06:11 39.25236 117.26736 2452 ft 203 kts 153°
2026-04-12 06:11 39.23996 117.27498 2208 ft 192 kts 153°
2026-04-12 06:11 39.22813 117.28228 1965 ft 184 kts 153°
2026-04-12 06:12 39.21690 117.28924 1711 ft 173 kts 154°
2026-04-12 06:12 39.20641 117.29567 1494 ft 162 kts 154°
2026-04-12 06:12 39.19656 117.30172 1286 ft 152 kts 154°
2026-04-12 06:12 39.18728 117.30748 1086 ft 144 kts 154°
2026-04-12 06:13 39.17846 117.31290 914 ft 137 kts 154°
2026-04-12 06:13 39.16994 117.31816 739 ft 135 kts 155°
2026-04-12 06:13 39.16142 117.32341 573 ft 136 kts 155°
2026-04-12 06:13 39.15289 117.32867 388 ft 136 kts 155°
2026-04-12 06:14 39.14436 117.33395 217 ft 136 kts 154°
2026-04-12 06:14 39.13579 117.33921 43 ft 136 kts 155°
2026-04-12 06:14 39.12816 117.34382 30 ft 103 kts 155°
2026-04-12 06:14 39.12310 117.34694 30 ft 58 kts 155°
2026-04-12 06:15 39.12043 117.34858 26 ft 34 kts 154°
2026-04-12 06:15 39.11856 117.35012 27 ft 24 kts 135°
2026-04-12 06:15 39.11757 117.35174 26 ft 20 kts 124°
2026-04-12 06:15 39.11763 117.35254 31 ft 5 kts 26°
2026-04-12 06:16 39.11827 117.35249 29 ft 12 kts 340°
2026-04-12 06:16 39.11910 117.35197 30 ft 14 kts 334°
2026-04-12 06:16 39.12007 117.35137 29 ft 17 kts 334°
2026-04-12 06:16 39.12119 117.35069 29 ft 18 kts 336°
2026-04-12 06:17 39.12204 117.35106 30 ft 11 kts 32°
2026-04-12 06:17 39.12281 117.35097 27 ft 12 kts 334°
2026-04-12 06:17 39.12367 117.35044 26 ft 15 kts 334°
2026-04-12 06:17 39.12475 117.35021 30 ft 17 kts
2026-04-12 06:18 39.12594 117.35030 29 ft 18 kts
2026-04-12 06:18 39.12729 117.35038 28 ft 14 kts
2026-04-12 06:18 39.12769 117.35094 30 ft 10 kts 82°
2026-04-12 06:18 39.12768 117.35141 29 ft 0 kts 93°
2026-04-12 06:19 39.12769 117.35148 29 ft 3 kts 90°
2026-04-12 06:19 39.12768 117.35161 29 ft 0 kts 93°